Location: Ceske Budejovice
(48.9830°N, 14.4670°E)
Time: 02:51:22
(UTC+01:00)

ISS - Pass Details

Date: 03 October 2020
Orbit: 417 x 420 km, 51.6° (Epoch: 25 October)

Event Time Altitude Azimuth Distance (km) Brightness Sun altitude
Rises 19:31:08 0° 290° (WNW) 2,369 1.8 -9.9°
Reaches altitude 10° 19:33:15 10° 288° (WNW) 1,503 0.5 -10.2°
Maximum altitude 19:36:36 72° 205° (SSW) 445 -3.6 -10.8°
Enters shadow 19:39:14 16° 121° (ESE) 1,209 -2.0 -11.2°
